Location: Unspecified
(43.4354°N, 0.0000°E)
Time: 05:46:19
(UTC+00:00)

A-11 Canister half - Pass Details

Date: 20 June 2019
Orbit: 1514 x 1686 km, 47.2° (Epoch: 21 August)

Event Time Altitude Azimuth Distance (km) Brightness Sun altitude
Rises 14:17:40 0° 277° (W) 4,843 12.0 55.7°
Reaches altitude 10° 14:20:52 10° 280° (W) 3,834 11.7 55.1°
Maximum altitude 14:30:36 72° 5° (N) 1,640 10.0 53.5°
Drops below altitude 10° 14:39:58 10° 89° (E) 3,705 10.8 51.9°
Sets 14:43:00 0° 92° (E) 4,673 11.2 51.4°
